Time,TemperatureF,DewpointF,PressureIn,WindDirection,WindDirectionDegrees,WindSpeedMPH,WindSpeedGustMPH,Humidity,HourlyPrecipIn,Conditions,Clouds,dailyrainin,SoftwareType,DateUTC
2013-10-14 00:00:00,58.6,57.5,30.15,NNW,338,1.0,6.0,96,0.00,,---,0.00,VWS V14.00,2013-10-14 04:00:00,
2013-10-14 00:15:00,57.5,56.1,30.16,North,0,3.0,10.0,95,0.00,,---,0.00,VWS V14.00,2013-10-14 04:15:00,
2013-10-14 00:30:00,56.6,55.2,30.15,NNE,22,2.0,8.0,95,0.00,,---,0.00,VWS V14.00,2013-10-14 04:30:00,
2013-10-14 00:45:00,56.0,54.3,30.15,NNE,22,2.0,6.0,94,0.00,,---,0.00,VWS V14.00,2013-10-14 04:45:00,
2013-10-14 01:00:00,55.8,54.1,30.16,NE,45,1.0,6.0,94,0.00,,---,0.00,VWS V14.00,2013-10-14 05:00:00,
2013-10-14 01:15:00,55.6,53.9,30.16,NE,45,2.0,6.0,94,0.00,,---,0.00,VWS V14.00,2013-10-14 05:15:00,
2013-10-14 01:30:00,55.5,53.8,30.16,NE,45,1.0,4.0,94,0.00,,---,0.00,VWS V14.00,2013-10-14 05:30:00,
2013-10-14 01:45:00,55.4,53.7,30.16,East,90,1.0,6.0,94,0.00,,---,0.00,VWS V14.00,2013-10-14 05:45:00,
2013-10-14 02:00:00,55.2,53.2,30.17,NE,45,1.0,5.0,93,0.01,,---,0.01,VWS V14.00,2013-10-14 06:00:00,
2013-10-14 02:15:00,55.0,53.3,30.17,NNE,22,0.0,3.0,94,0.01,,---,0.01,VWS V14.00,2013-10-14 06:15:00,
2013-10-14 02:30:00,54.9,53.2,30.17,NNE,22,0.0,1.0,94,0.02,,---,0.02,VWS V14.00,2013-10-14 06:30:00,
2013-10-14 02:45:00,54.7,53.0,30.17,North,0,0.0,4.0,94,0.02,,---,0.02,VWS V14.00,2013-10-14 06:45:00,
2013-10-14 03:00:00,54.4,52.7,30.17,NNE,22,1.0,5.0,94,0.02,,---,0.02,VWS V14.00,2013-10-14 07:00:00,
2013-10-14 03:15:00,54.0,52.0,30.17,NE,45,2.0,7.0,93,0.01,,---,0.02,VWS V14.00,2013-10-14 07:15:00,
2013-10-14 03:30:00,53.9,51.9,30.18,NNE,22,2.0,7.0,93,0.01,,---,0.02,VWS V14.00,2013-10-14 07:30:00,
2013-10-14 03:45:00,53.8,52.1,30.18,NNE,22,1.0,7.0,94,0.00,,---,0.02,VWS V14.00,2013-10-14 07:45:00,
2013-10-14 04:00:00,53.8,52.1,30.18,NNE,22,1.0,5.0,94,0.00,,---,0.02,VWS V14.00,2013-10-14 08:00:00,
2013-10-14 04:15:00,53.6,51.9,30.17,NE,45,1.0,6.0,94,0.00,,---,0.02,VWS V14.00,2013-10-14 08:15:00,
2013-10-14 04:30:00,53.6,51.9,30.17,NE,45,1.0,5.0,94,0.00,,---,0.02,VWS V14.00,2013-10-14 08:30:00,
2013-10-14 04:45:00,53.5,51.8,30.18,NE,45,1.0,7.0,94,0.00,,---,0.02,VWS V14.00,2013-10-14 08:45:00,
2013-10-14 05:00:00,53.5,51.8,30.18,NNE,22,2.0,7.0,94,0.00,,---,0.02,VWS V14.00,2013-10-14 09:00:00,
2013-10-14 05:15:00,53.4,51.7,30.18,NE,45,1.0,6.0,94,0.00,,---,0.02,VWS V14.00,2013-10-14 09:15:00,
2013-10-14 05:30:00,53.2,51.2,30.18,NE,45,1.0,8.0,93,0.00,,---,0.02,VWS V14.00,2013-10-14 09:30:00,
2013-10-14 05:45:00,53.1,50.8,30.19,NNE,22,3.0,7.0,92,0.00,,---,0.02,VWS V14.00,2013-10-14 09:45:00,
2013-10-14 06:00:00,52.9,50.3,30.19,NNE,22,2.0,8.0,91,0.00,,---,0.02,VWS V14.00,2013-10-14 10:00:00,
2013-10-14 06:15:00,52.8,50.0,30.19,NNE,22,2.0,9.0,90,0.00,,---,0.02,VWS V14.00,2013-10-14 10:15:00,
2013-10-14 06:30:00,52.6,49.8,30.19,NNE,22,2.0,8.0,90,0.00,,---,0.02,VWS V14.00,2013-10-14 10:30:00,
2013-10-14 06:45:00,52.4,49.6,30.19,NNE,22,1.0,7.0,90,0.00,,---,0.02,VWS V14.00,2013-10-14 10:45:00,
2013-10-14 07:00:00,52.4,49.3,30.19,NNE,22,2.0,7.0,89,0.00,,---,0.02,VWS V14.00,2013-10-14 11:00:00,
2013-10-14 07:15:00,52.4,49.3,30.20,NNE,22,2.0,8.0,89,0.00,,---,0.02,VWS V14.00,2013-10-14 11:15:00,
2013-10-14 07:30:00,52.1,49.3,30.20,North,0,1.0,5.0,90,0.00,,---,0.02,VWS V14.00,2013-10-14 11:30:00,
2013-10-14 07:45:00,51.9,49.1,30.20,NNE,22,1.0,6.0,90,0.00,,---,0.02,VWS V14.00,2013-10-14 11:45:00,
2013-10-14 08:00:00,51.8,49.0,30.20,NNE,22,1.0,7.0,90,0.00,,---,0.02,VWS V14.00,2013-10-14 12:00:00,
2013-10-14 08:15:00,52.0,48.9,30.21,NNE,22,1.0,7.0,89,0.00,,---,0.02,VWS V14.00,2013-10-14 12:15:00,
2013-10-14 08:30:00,52.3,48.9,30.22,North,0,1.0,8.0,88,0.00,,---,0.02,VWS V14.00,2013-10-14 12:30:00,
2013-10-14 08:45:00,52.9,49.5,30.22,NNE,22,3.0,8.0,88,0.00,,---,0.02,VWS V14.00,2013-10-14 12:45:00,
2013-10-14 09:00:00,53.8,49.7,30.22,NNE,22,2.0,8.0,86,0.00,,---,0.02,VWS V14.00,2013-10-14 13:00:00,
2013-10-14 09:15:00,53.5,49.4,30.22,NE,45,3.0,12.0,86,0.00,,---,0.02,VWS V14.00,2013-10-14 13:15:00,
2013-10-14 09:30:00,54.6,50.2,30.22,NE,45,2.0,8.0,85,0.00,,---,0.02,VWS V14.00,2013-10-14 13:30:00,
2013-10-14 09:45:00,55.3,49.9,30.22,NE,45,4.0,10.0,82,0.00,,---,0.02,VWS V14.00,2013-10-14 13:45:00,
2013-10-14 10:00:00,56.0,50.3,30.23,ENE,68,4.0,12.0,81,0.00,,---,0.02,VWS V14.00,2013-10-14 14:00:00,
2013-10-14 10:15:00,56.5,49.7,30.22,ENE,68,4.0,15.0,78,0.00,,---,0.02,VWS V14.00,2013-10-14 14:15:00,
2013-10-14 10:30:00,56.2,49.4,30.22,East,90,5.0,12.0,78,0.00,,---,0.02,VWS V14.00,2013-10-14 14:30:00,
2013-10-14 10:45:00,56.5,49.4,30.22,NNE,22,4.0,10.0,77,0.00,,---,0.02,VWS V14.00,2013-10-14 14:45:00,
2013-10-14 11:00:00,56.0,49.6,30.22,ENE,68,3.0,9.0,79,0.00,,---,0.02,VWS V14.00,2013-10-14 15:00:00,
2013-10-14 11:15:00,56.3,49.5,30.22,NE,45,2.0,8.0,78,0.00,,---,0.02,VWS V14.00,2013-10-14 15:15:00,
2013-10-14 11:30:00,56.7,49.9,30.22,ENE,68,2.0,8.0,78,0.00,,---,0.02,VWS V14.00,2013-10-14 15:30:00,
2013-10-14 11:45:00,57.0,49.9,30.21,ENE,68,2.0,7.0,77,0.00,,---,0.02,VWS V14.00,2013-10-14 15:45:00,
2013-10-14 12:00:00,58.0,50.1,30.21,East,90,2.0,7.0,75,0.00,,---,0.02,VWS V14.00,2013-10-14 16:00:00,
2013-10-14 12:15:00,59.7,49.9,30.20,East,90,3.0,9.0,70,0.00,,---,0.02,VWS V14.00,2013-10-14 16:15:00,
2013-10-14 12:30:00,60.8,49.0,30.20,NNE,22,4.0,9.0,65,0.00,,---,0.02,VWS V14.00,2013-10-14 16:30:00,
2013-10-14 12:45:00,61.5,50.0,30.19,North,0,2.0,8.0,66,0.00,,---,0.02,VWS V14.00,2013-10-14 16:45:00,
2013-10-14 13:00:00,61.9,50.4,30.18,NNW,338,3.0,8.0,66,0.00,,---,0.02,VWS V14.00,2013-10-14 17:00:00,
2013-10-14 13:15:00,62.4,49.7,30.18,NNE,22,3.0,9.0,63,0.00,,---,0.02,VWS V14.00,2013-10-14 17:15:00,
2013-10-14 13:30:00,62.8,49.2,30.17,NE,45,2.0,7.0,61,0.00,,---,0.02,VWS V14.00,2013-10-14 17:30:00,
2013-10-14 13:45:00,62.8,48.7,30.17,North,0,2.0,7.0,60,0.00,,---,0.02,VWS V14.00,2013-10-14 17:45:00,
2013-10-14 14:00:00,62.4,48.3,30.17,North,0,2.0,7.0,60,0.00,,---,0.02,VWS V14.00,2013-10-14 18:00:00,
2013-10-14 14:15:00,63.0,48.9,30.16,NW,315,2.0,7.0,60,0.00,,---,0.02,VWS V14.00,2013-10-14 18:15:00,
2013-10-14 14:30:00,63.6,49.5,30.16,ENE,68,2.0,7.0,60,0.00,,---,0.02,VWS V14.00,2013-10-14 18:30:00,
2013-10-14 14:45:00,63.5,49.4,30.16,NE,45,2.0,7.0,60,0.00,,---,0.02,VWS V14.00,2013-10-14 18:45:00,
2013-10-14 15:00:00,64.1,49.5,30.15,North,0,3.0,8.0,59,0.00,,---,0.02,VWS V14.00,2013-10-14 19:00:00,
2013-10-14 15:15:00,63.6,48.1,30.15,North,0,4.0,9.0,57,0.00,,---,0.02,VWS V14.00,2013-10-14 19:15:00,
2013-10-14 15:30:00,63.4,47.9,30.15,NNW,338,5.0,10.0,57,0.00,,---,0.02,VWS V14.00,2013-10-14 19:30:00,
2013-10-14 15:45:00,63.2,48.2,30.15,North,0,4.0,9.0,58,0.00,,---,0.02,VWS V14.00,2013-10-14 19:45:00,
2013-10-14 16:00:00,62.7,48.6,30.14,North,0,4.0,10.0,60,0.00,,---,0.02,VWS V14.00,2013-10-14 20:00:00,
2013-10-14 16:15:00,62.3,48.2,30.14,NNE,22,4.0,10.0,60,0.00,,---,0.02,VWS V14.00,2013-10-14 20:15:00,
2013-10-14 16:30:00,61.9,47.9,30.14,NNE,22,4.0,10.0,60,0.00,,---,0.02,VWS V14.00,2013-10-14 20:30:00,
2013-10-14 16:45:00,61.0,47.5,30.14,North,0,5.0,10.0,61,0.00,,---,0.02,VWS V14.00,2013-10-14 20:45:00,
2013-10-14 17:00:00,60.5,47.4,30.15,North,0,4.0,9.0,62,0.00,,---,0.02,VWS V14.00,2013-10-14 21:00:00,
2013-10-14 17:15:00,60.1,47.0,30.15,North,0,3.0,8.0,62,0.00,,---,0.02,VWS V14.00,2013-10-14 21:15:00,
2013-10-14 17:30:00,59.2,46.6,30.15,NNE,22,4.0,8.0,63,0.00,,---,0.02,VWS V14.00,2013-10-14 21:30:00,
2013-10-14 17:45:00,58.4,46.7,30.15,NNE,22,3.0,8.0,65,0.00,,---,0.02,VWS V14.00,2013-10-14 21:45:00,
2013-10-14 18:00:00,57.6,45.9,30.15,North,0,3.0,7.0,65,0.00,,---,0.02,VWS V14.00,2013-10-14 22:00:00,
2013-10-14 18:15:00,56.2,45.4,30.15,North,0,2.0,8.0,67,0.00,,---,0.02,VWS V14.00,2013-10-14 22:15:00,
2013-10-14 18:30:00,55.0,45.4,30.15,North,0,2.0,7.0,70,0.00,,---,0.02,VWS V14.00,2013-10-14 22:30:00,
2013-10-14 18:45:00,53.8,45.0,30.15,North,0,1.0,5.0,72,0.00,,---,0.02,VWS V14.00,2013-10-14 22:45:00,
2013-10-14 19:00:00,52.7,45.0,30.16,North,0,0.0,0.0,75,0.00,,---,0.02,VWS V14.00,2013-10-14 23:00:00,
2013-10-14 19:15:00,51.3,44.7,30.16,North,0,0.0,1.0,78,0.00,,---,0.02,VWS V14.00,2013-10-14 23:15:00,
2013-10-14 19:30:00,50.8,44.2,30.16,NNE,22,0.0,1.0,78,0.00,,---,0.02,VWS V14.00,2013-10-14 23:30:00,
2013-10-14 19:45:00,49.8,43.9,30.16,NNE,22,0.0,1.0,80,0.00,,---,0.02,VWS V14.00,2013-10-14 23:45:00,
2013-10-14 20:00:00,49.2,43.0,30.17,NNE,22,0.0,0.0,79,0.00,,---,0.02,VWS V14.00,2013-10-15 00:00:00,
2013-10-14 20:15:00,49.0,42.8,30.16,NNE,22,0.0,1.0,79,0.00,,---,0.02,VWS V14.00,2013-10-15 00:15:00,
2013-10-14 20:30:00,49.4,43.2,30.16,ENE,68,0.0,3.0,79,0.00,,---,0.02,VWS V14.00,2013-10-15 00:30:00,
2013-10-14 20:45:00,49.4,43.2,30.17,NE,45,0.0,2.0,79,0.00,,---,0.02,VWS V14.00,2013-10-15 00:45:00,
2013-10-14 21:00:00,49.1,42.9,30.16,NE,45,0.0,2.0,79,0.00,,---,0.02,VWS V14.00,2013-10-15 01:00:00,
2013-10-14 21:15:00,49.4,42.8,30.17,ENE,68,1.0,5.0,78,0.00,,---,0.02,VWS V14.00,2013-10-15 01:15:00,
2013-10-14 21:30:00,49.4,42.8,30.17,ENE,68,0.0,3.0,78,0.00,,---,0.02,VWS V14.00,2013-10-15 01:30:00,
2013-10-14 21:45:00,49.4,43.2,30.17,NE,45,0.0,2.0,79,0.00,,---,0.02,VWS V14.00,2013-10-15 01:45:00,
2013-10-14 21:59:00,49.4,42.8,30.17,ENE,68,0.0,3.0,78,0.00,,---,0.02,VWS V14.00,2013-10-15 01:59:00,
2013-10-14 22:00:00,48.8,42.9,30.16,ENE,78,0.0,1.0,80,0.00,,---,0.02,VWS V14.00,2013-10-15 02:00:00,
2013-10-14 22:04:00,48.8,42.9,30.16,ENE,57,0.0,2.0,80,0.00,,---,0.02,VWS V14.00,2013-10-15 02:04:00,
2013-10-14 22:09:00,48.7,42.8,30.16,NE,56,0.0,2.0,80,0.00,,---,0.02,VWS V14.00,2013-10-15 02:09:00,
2013-10-14 22:14:00,48.6,42.7,30.16,ESE,102,0.0,2.0,80,0.00,,---,0.02,VWS V14.00,2013-10-15 02:14:00,
2013-10-14 22:15:00,48.6,42.7,30.16,East,94,0.0,2.0,80,0.00,,---,0.02,VWS V14.00,2013-10-15 02:15:00,
2013-10-14 22:19:00,48.5,42.6,30.16,ENE,70,0.0,0.0,80,0.00,,---,0.02,VWS V14.00,2013-10-15 02:19:00,
2013-10-14 22:24:00,48.4,42.8,30.16,ENE,63,0.0,4.0,81,0.00,,---,0.02,VWS V14.00,2013-10-15 02:24:00,
2013-10-14 22:29:00,48.4,42.8,30.16,ESE,111,0.0,4.0,81,0.00,,---,0.02,VWS V14.00,2013-10-15 02:29:00,
2013-10-14 22:30:00,48.4,42.5,30.16,ESE,107,0.0,4.0,80,0.00,,---,0.02,VWS V14.00,2013-10-15 02:30:00,
2013-10-14 22:34:00,48.5,42.6,30.16,East,98,0.0,4.0,80,0.00,,---,0.02,VWS V14.00,2013-10-15 02:34:00,
2013-10-14 22:39:00,48.4,42.5,30.16,ENE,70,0.0,4.0,80,0.00,,---,0.02,VWS V14.00,2013-10-15 02:39:00,
2013-10-14 22:44:00,48.4,42.5,30.15,ESE,104,0.0,4.0,80,0.00,,---,0.02,VWS V14.00,2013-10-15 02:44:00,
2013-10-14 22:45:00,48.4,42.5,30.15,ENE,76,1.0,4.0,80,0.00,,---,0.02,VWS V14.00,2013-10-15 02:45:00,
2013-10-14 22:49:00,48.4,42.5,30.15,East,94,2.0,2.0,80,0.00,,---,0.02,VWS V14.00,2013-10-15 02:49:00,
2013-10-14 22:54:00,48.4,42.2,30.15,East,98,1.0,4.0,79,0.00,,---,0.02,VWS V14.00,2013-10-15 02:54:00,
2013-10-14 22:59:00,48.4,42.2,30.15,East,100,0.0,4.0,79,0.00,,---,0.02,VWS V14.00,2013-10-15 02:59:00,
2013-10-14 23:00:00,48.4,42.2,30.15,East,82,0.0,4.0,79,0.00,,---,0.02,VWS V14.00,2013-10-15 03:00:00,
2013-10-14 23:04:00,48.3,42.1,30.15,East,84,0.0,4.0,79,0.00,,---,0.02,VWS V14.00,2013-10-15 03:04:00,
2013-10-14 23:09:00,48.4,42.2,30.15,ENE,62,2.0,5.0,79,0.00,,---,0.02,VWS V14.00,2013-10-15 03:09:00,
2013-10-14 23:14:00,48.5,42.0,30.15,ESE,111,2.0,6.0,78,0.00,,---,0.02,VWS V14.00,2013-10-15 03:14:00,
2013-10-14 23:15:00,48.5,42.0,30.15,East,82,0.0,6.0,78,0.00,,---,0.02,VWS V14.00,2013-10-15 03:15:00,
2013-10-14 23:19:00,48.6,42.1,30.15,ESE,111,1.0,3.0,78,0.00,,---,0.02,VWS V14.00,2013-10-15 03:19:00,
2013-10-14 23:24:00,48.6,41.7,30.15,East,79,0.0,3.0,77,0.00,,---,0.02,VWS V14.00,2013-10-15 03:24:00,
2013-10-14 23:29:00,48.6,41.7,30.15,East,93,1.0,3.0,77,0.00,,---,0.02,VWS V14.00,2013-10-15 03:29:00,
2013-10-14 23:30:00,48.6,41.4,30.15,ESE,107,1.0,4.0,76,0.00,,---,0.02,VWS V14.00,2013-10-15 03:30:00,
2013-10-14 23:34:00,48.7,41.8,30.15,ESE,103,0.0,1.0,77,0.00,,---,0.02,VWS V14.00,2013-10-15 03:34:00,
2013-10-14 23:39:00,48.7,41.5,30.14,NE,50,0.0,4.0,76,0.00,,---,0.02,VWS V14.00,2013-10-15 03:39:00,
2013-10-14 23:44:00,48.7,41.5,30.14,ENE,61,0.0,4.0,76,0.00,,---,0.02,VWS V14.00,2013-10-15 03:44:00,
2013-10-14 23:45:00,48.6,41.4,30.14,ENE,61,0.0,4.0,76,0.00,,---,0.02,VWS V14.00,2013-10-15 03:45:00,
2013-10-14 23:49:00,48.7,41.5,30.14,East,86,0.0,5.0,76,0.00,,---,0.02,VWS V14.00,2013-10-15 03:49:00,
2013-10-14 23:54:00,48.7,41.5,30.14,ENE,78,2.0,5.0,76,0.00,,---,0.02,VWS V14.00,2013-10-15 03:54:00,
2013-10-14 23:59:00,48.9,41.3,30.14,East,86,1.0,6.0,75,0.00,,---,0.02,VWS V14.00,2013-10-15 03:59:00,